Location: Betra
(48.4113°N, 8.6634°E)
Time: 04:19:38
(UTC+00:00)

SAR-Lupe-4 - Pass Details

Date: 13 August 2024
Orbit: 473 x 479 km, 98.1° (Epoch: 30 August)

Event Time Altitude Azimuth Distance (km) Brightness Sun altitude
Rises 01:33:15 0° 36° (NE) 2,543 8.8 -21.4°
Reaches altitude 10° 01:37:08 10° 79° (E) 1,657 6.8 -21.0°
Maximum altitude 01:37:44 10° 89° (E) 1,634 6.6 -21.0°
Drops below altitude 10° 01:38:21 10° 99° (E) 1,655 6.5 -20.9°
Enters shadow 01:40:36 - 129° (SE) 2,048 6.7 -20.7°
